User: anonymous   Login
Location: Wawayanda State Park
(41.1833°N, 74.4333°W)
Time: 23:41:37
(UTC-04:00)
Language:

RESURS DK-1 - Orbit

View from above orbital plane
View from above orbital plane
View from above satellite
View from above satellite

Ground track
Ground track

The orbit data is extracted from the following two-line orbital elements,

1 29228U 06021A   14298.83008226  .00001514  00000-0  12619-3 0  3644
2 29228 069.9387 032.4825 0004448 344.0599 114.2497 15.00907170463174
Epoch (UTC): 25 October 2014 19:55:19
Eccentricity: 0.0004448
inclination: 69.9387°
perigee height: 561 km
apogee height: 567 km
right ascension of ascending node: 32.4825°
argument of perigee: 344.0599°
revolutions per day: 15.00907170
mean anomaly at epoch: 114.2497°
orbit number at epoch: 46317

The dashed part of the orbit path shows where the satellite is in the earth's shadow,  

DLR